Starlink 32605

operational
NORAD ID: 61921 Int'l Des: 2024-207 Owner: SPXS Country: US Constellation: starlink
LEOCIRCULAR

Über Starlink 32605

Beschreibung wird geladen...

Live-Position

3D-Globus wird geladen...

Nächste Überflüge

Höhenverlauf

Altitude vs Time

uPlot chart will show altitude changes over time

Zweizeiliger Elementsatz

1 61921U 24207K 25352.08374157 .00026692 00000-0 97587-3 0 9990
2 61921 43.0019 22.4253 0000866 247.1393 112.9368 15.27584239 62245
Epoch: 18. Dez. 2025 • Age: 16 hours

Aktueller Status

Höhe 485.3 km
Geschwindigkeit 7.63 km/s
Subsatellitenpunkt 36.76°N, 74.37°E
Startdatum 11. Nov. 2024
Alter 1 years
Typ internet

Technische Details

Klassifizierung Payload
Masse 730.00 kg
Trockenmasse 700.00 kg
Gesamtmasse 730.00 kg
Länge 0.30 m
Durchmesser 4.10 m
Spannweite 29.00 m
Form Box + pan
Hersteller SPXS
Bus-Typ Starlink V2M
Phasenstatus In Orbit
Besitzer/Staat SPXS/US

Große Konstellationen

Loading constellations...